Home   Weather   Spartanburg   Past weeks

Flag for USA Past Weather in Spartanburg, South Carolina, USA — Yesterday and Last 2 Weeks

Now
72 °F

Clear.


Feels Like: 72 °F
Forecast: 65 / 82 °F
Wind: 3 mph from West

Location: Spartanburg Memorial

Current Time: May 28, 2017 at 2:55:59 am

Latest Report: May 28, 2017 at 2:15 am


Visibility: 10 mi

Pressure: 29.90 "Hg

Humidity: 78%

Dew Point: 64 °F

Location of SpartanburgLocation

Past Weather in Spartanburg — Graph

°F

Spartanburg Temperature Yesterday

Maximum temperature yesterday: 86 °F (at 1:55 pm)
Minimum temperature yesterday: 61 °F (at 5:15 am)
Average temperature yesterday: 74 °F

High & Low Weather Summary for the Past Weeks

 TemperatureHumidityPressure
High88 °F (May 16, 3:35 pm)100% (May 13, 4:35 am)30.18 "Hg (May 13, 4:35 am)
Low48 °F (May 14, 6:35 am)25% (May 15, 2:35 pm)29.48 "Hg (May 24, 6:35 pm)
Average70 °F71%29.95 "Hg
* Reported May 13 1:15 am — May 28 1:35 am, Spartanburg. Weather by CustomWeather, © 2017

Note: Actual official high and low records may vary slightly from our data, if they occured in-between our weather recording intervals... More about our weather records

Advertising

Spartanburg Weather History for the Previous 24 Hours

Scroll right to see more
 ConditionsComfort  
Time TempWeatherWind HumidityBarometerVisibility
1:35 am
Sun, May 28
73 °FPartly cloudy.3 mph74%29.93 "Hg10 mi
1:15 am72 °FPassing clouds.6 mph78%29.94 "Hg10 mi
12:55 am72 °FClear.6 mph78%29.93 "Hg10 mi
12:35 am72 °FClear.5 mph78%29.93 "Hg10 mi
12:15 am72 °FClear.5 mph78%29.93 "Hg10 mi
11:55 pm
Sat, May 27
72 °FClear.5 mph78%29.92 "Hg10 mi
11:35 pm72 °FClear.5 mph78%29.92 "Hg10 mi
10:55 pm73 °FClear.3 mph74%29.93 "Hg10 mi
10:35 pm73 °FClear.No wind74%29.93 "Hg10 mi
10:15 pm75 °FClear.No wind65%29.93 "Hg10 mi
9:55 pm75 °FClear.3 mph69%29.92 "Hg10 mi
9:35 pm75 °FClear.No wind69%29.93 "Hg10 mi
8:55 pm77 °FClear.No wind61%29.92 "Hg10 mi
8:35 pm79 °FClear.3 mph58%29.92 "Hg10 mi
8:15 pm79 °FSunny.7 mph58%29.91 "Hg10 mi
7:55 pm81 °FSunny.6 mph54%29.91 "Hg10 mi
7:35 pm81 °FSunny.7 mph54%29.91 "Hg10 mi
7:15 pm82 °FSunny.8 mph51%29.91 "Hg10 mi
6:55 pm82 °FSunny.6 mph51%29.91 "Hg10 mi
6:35 pm82 °FSunny.9 mph51%29.92 "Hg10 mi
6:15 pm84 °FSunny.8 mph48%29.92 "Hg10 mi
5:55 pm82 °FScattered clouds.9 mph55%29.92 "Hg7 mi
5:35 pm82 °FBroken clouds.5 mph55%29.93 "Hg10 mi
5:15 pm82 °FBroken clouds.5 mph51%29.93 "Hg10 mi
4:55 pm84 °FScattered clouds.10 mph48%29.93 "Hg10 mi
4:35 pm84 °FScattered clouds.12 mph48%29.93 "Hg10 mi
4:15 pm82 °FSunny.9 mph51%29.93 "Hg10 mi
3:55 pm82 °FSunny.10 mph51%29.93 "Hg10 mi
3:35 pm82 °FSunny.8 mph51%29.92 "Hg10 mi
2:55 pm82 °FSunny.7 mph51%29.94 "Hg10 mi
2:35 pm84 °FSunny.3 mph45%29.95 "Hg10 mi
2:15 pm86 °FScattered clouds.10 mph43%29.97 "Hg7 mi
1:55 pm86 °FSunny.9 mph43%29.98 "Hg10 mi
1:35 pm84 °FSunny.5 mph45%29.98 "Hg10 mi
1:15 pm82 °FSunny.6 mph48%29.99 "Hg7 mi
12:55 pm82 °FSunny.9 mph48%29.99 "Hg10 mi
12:35 pm81 °FSunny.9 mph54%29.99 "Hg10 mi
12:15 pm82 °FSunny.10 mph51%30.00 "Hg10 mi
11:55 am81 °FSunny.7 mph54%29.99 "Hg10 mi
11:35 am81 °FSunny.10 mph54%29.99 "Hg10 mi
11:15 am79 °FSunny.10 mph58%30.00 "Hg10 mi
10:55 am79 °FSunny.12 mph58%30.00 "Hg7 mi
10:35 am79 °FSunny.13 mph58%30.00 "Hg10 mi
9:55 am75 °FSunny.12 mph65%30.00 "Hg10 mi
9:35 am73 °FSunny.8 mph69%30.00 "Hg10 mi
9:15 am72 °FSunny.7 mph73%30.00 "Hg10 mi
8:55 am70 °FSunny.7 mph73%30.00 "Hg10 mi
8:35 am70 °FSunny.7 mph73%29.99 "Hg10 mi
7:55 am68 °FSunny.5 mph78%29.99 "Hg10 mi
7:35 am64 °FSunny.No wind88%29.99 "Hg10 mi
7:15 am64 °FSunny.No wind83%29.99 "Hg10 mi
6:55 am63 °FSunny.No wind88%29.99 "Hg10 mi
6:35 am63 °FSunny.3 mph88%29.98 "Hg10 mi
5:55 am61 °FClear.3 mph94%29.98 "Hg10 mi
5:35 am61 °FClear.No wind94%29.98 "Hg10 mi
5:15 am61 °FClear.No wind94%29.98 "Hg10 mi
4:35 am63 °FClear.No wind88%29.98 "Hg10 mi
4:15 am64 °FClear.No wind83%29.98 "Hg10 mi
3:55 am64 °FClear.5 mph83%29.99 "Hg10 mi
3:35 am64 °FClear.5 mph83%29.99 "Hg10 mi
3:15 am64 °FClear.5 mph83%29.99 "Hg10 mi
2:55 am64 °FClear.5 mph83%29.99 "Hg10 mi
2:35 am64 °FClear.6 mph83%29.99 "Hg10 mi
2:15 am64 °FClear.5 mph83%29.99 "Hg10 mi
Weather by CustomWeather, © 2017

See weather overviewHow to use our weather pages